This is the latest recevied weather packets stored in our database for station/object XE1GMR. If no packets are shown the sender has not sent any weather packets the latest 1 day(s).
| Time | Temp. | Humidity | Pressure | Rain* | Wind** | Luminosity | Snow |
|---|---|---|---|---|---|---|---|
| 1778032127 | 25.56° C | 42% | 1120.2 hPa | 0 mm | 0.45 m/s, 246° | 0 W/m² | - |
| 1778031824 | 25.56° C | 42% | 1120.1 hPa | 0 mm | 0.45 m/s, 239° | 0 W/m² | - |
| 1778031520 | 25.56° C | 42% | 1120.4 hPa | 0 mm | 0.89 m/s, 248° | 0 W/m² | - |
| 1778031218 | 26.11° C | 41% | 1120.1 hPa | 0 mm | 0.45 m/s, 234° | 0 W/m² | - |
| 1778030914 | 26.11° C | 41% | 1120.1 hPa | 0 mm | 0 m/s | 0 W/m² | - |
| 1778030612 | 26.11° C | 41% | 1120.2 hPa | 0 mm | 0 m/s | 0 W/m² | - |
| 1778030309 | 26.11° C | 41% | 1119.9 hPa | 0 mm | 0.45 m/s, 236° | 0 W/m² | - |
| 1778030005 | 26.11° C | 40% | 1120.1 hPa | 0 mm | 0.45 m/s, 242° | 0 W/m² | - |
| 1778029703 | 26.67° C | 40% | 1120.2 hPa | 0 mm | 0.45 m/s, 202° | 0 W/m² | - |
| 1778029401 | 26.67° C | 40% | 1120.1 hPa | 0 mm | 1.34 m/s, 263° | 0 W/m² | - |
| 1778029097 | 26.67° C | 40% | 1120 hPa | 0 mm | 0.89 m/s, 193° | 1 W/m² | - |
| 1778028794 | 26.67° C | 40% | 1119.9 hPa | 0 mm | 0.45 m/s, 222° | 3 W/m² | - |
| 1778028490 | 26.67° C | 40% | 1119.9 hPa | 0 mm | 0.45 m/s, 216° | 6 W/m² | - |
| 1778028188 | 26.67° C | 39% | 1120 hPa | 0 mm | 1.34 m/s, 204° | 8 W/m² | - |
| 1778027883 | 27.22° C | 39% | 1119.9 hPa | 0 mm | 1.34 m/s, 187° | 14 W/m² | - |
| 1778027580 | 27.22° C | 38% | 1119.8 hPa | 0 mm | 0.89 m/s, 239° | 15 W/m² | - |
| 1778027276 | 27.22° C | 37% | 1119.7 hPa | 0 mm | 2.24 m/s, 235° | 19 W/m² | - |
| 1778026973 | 27.22° C | 38% | 1119.7 hPa | 0 mm | 0.89 m/s, 208° | 24 W/m² | - |
| 1778026669 | 27.78° C | 35% | 1119.8 hPa | 0 mm | 0.89 m/s, 260° | 29 W/m² | - |
| 1778026367 | 27.78° C | 34% | 1119.6 hPa | 0 mm | 0.45 m/s, 257° | 33 W/m² | - |
| 1778026063 | 27.78° C | 35% | 1119.5 hPa | 0 mm | 0.45 m/s, 205° | 35 W/m² | - |
| 1778025761 | 28.33° C | 35% | 1119.5 hPa | 0 mm | 2.24 m/s, 234° | 38 W/m² | - |
| 1778025457 | 28.33° C | 34% | 1119.3 hPa | 0 mm | 0.45 m/s, 217° | 42 W/m² | - |
| 1778025155 | 28.33° C | 33% | 1119.4 hPa | 0 mm | 0.45 m/s, 280° | 46 W/m² | - |
| 1778024852 | 28.89° C | 34% | 1119.4 hPa | 0 mm | 0.45 m/s, 234° | 54 W/m² | - |
* Rain latest hour (hover to see other rain measurements)
** Current wind speed in m/s (hover to see current wind gust speed)